Location: Weatherford
(35.5260°N, 98.7070°W)
Time: 06:03:02
(UTC-05:00)

OPAL - Visible Passes

Search period start: 25 May 2016 00:00
Search period end: 04 June 2016 00:00
Orbit: 744 x 795 km, 100.2° (Epoch: 24 May)

Date Brightness Start Highest point End Pass type
(mag) Time Alt. Az. Time Alt. Az. Time Alt. Az.
25 May 8.0 02:44:47 10° N 02:49:01 57° N 02:49:01 57° N visible
26 May 8.7 02:09:32 10° NNE 02:13:08 38° ENE 02:13:08 38° ENE visible
26 May 9.3 03:49:26 10° NNW 03:53:02 19° WNW 03:53:26 19° WNW visible
27 May 9.6 01:35:04 10° NE 01:37:15 18° ENE 01:37:15 18° ENE visible
27 May 8.4 03:13:03 10° N 03:17:33 40° WNW 03:17:33 40° WNW visible
28 May 8.0 02:37:24 10° NNE 02:41:40 60° NNE 02:41:40 60° NNE visible
28 May 9.8 04:19:37 10° NW 04:20:43 11° WNW 04:21:50 10° WNW visible
29 May 8.9 02:02:19 10° NNE 02:05:48 32° ENE 02:05:48 32° ENE visible
29 May 9.0 03:41:42 10° NNW 03:45:47 23° WNW 03:46:05 23° WNW visible
30 May 9.8 01:28:13 10° NE 01:29:55 15° ENE 01:29:55 15° ENE visible
30 May 8.1 03:05:34 10° N 03:10:12 50° NW 03:10:12 50° NW visible
31 May 8.0 02:30:03 10° NNE 02:34:19 57° NE 02:34:19 57° NE visible
31 May 9.6 04:11:04 10° NNW 04:13:30 13° WNW 04:14:37 13° WNW visible
01 Jun 9.1 01:55:10 10° NE 01:58:26 27° ENE 01:58:26 27° ENE visible
01 Jun 8.7 03:34:03 10° N 03:38:30 29° WNW 03:38:43 29° WNW visible
02 Jun 10.0 01:21:38 10° ENE 01:22:32 12° ENE 01:22:32 12° ENE visible
02 Jun 7.8 02:58:07 10° N 03:02:50 61° NW 03:02:50 61° NW visible
03 Jun 8.2 02:22:45 10° NNE 02:26:56 49° ENE 02:26:56 49° ENE visible
03 Jun 9.4 04:03:04 10° NNW 04:06:15 17° WNW 04:07:14 16° WNW visible
